This is the latest recevied weather packets stored in our database for station/object WA1NHP. If no packets are shown the sender has not sent any weather packets the latest 10 day(s).
| Time | Temp. | Humidity | Pressure | Rain* | Wind** | Luminosity | Snow |
|---|---|---|---|---|---|---|---|
| 1777808044 | 3.89° C | 84% | 1023.9 hPa | 0 mm | - | 72 W/m² | - |
| 1777807444 | 3.33° C | 85% | 1023.9 hPa | 0 mm | - | 65 W/m² | - |
| 1777806843 | 3.33° C | 86% | 1023.9 hPa | 0 mm | - | 58 W/m² | - |
| 1777806244 | 2.78° C | 86% | 1023.9 hPa | 0 mm | - | 35 W/m² | - |
| 1777805644 | 2.78° C | 86% | 1023.9 hPa | 0 mm | - | 39 W/m² | - |
| 1777805044 | 2.78° C | 86% | 1023.9 hPa | 0 mm | - | 23 W/m² | - |
| 1777804444 | 2.78° C | 87% | 1023.9 hPa | 0 mm | - | 19 W/m² | - |
| 1777803844 | 2.22° C | 89% | 1023.9 hPa | 0 mm | - | 14 W/m² | - |
| 1777803244 | 2.22° C | 90% | 1023.9 hPa | 0 mm | - | 7 W/m² | - |
| 1777802643 | 1.67° C | 91% | 1023.9 hPa | 0 mm | - | 0 W/m² | - |
| 1777802044 | 1.11° C | 91% | 1023.9 hPa | 0 mm | - | 0 W/m² | - |
| 1777801444 | 1.11° C | 91% | 1023.9 hPa | 0 mm | - | 0 W/m² | - |
| 1777800844 | 1.11° C | 91% | 1023.9 hPa | 0 mm | - | 0 W/m² | - |
| 1777800244 | 0.56° C | 91% | 1023.9 hPa | 0 mm | - | 0 W/m² | - |
| 1777799644 | 0.56° C | 90% | 1023.9 hPa | 0 mm | - | 0 W/m² | - |
| 1777799044 | 0.56° C | 90% | 1023.9 hPa | 0 mm | - | 0 W/m² | - |
| 1777798444 | 0.56° C | 90% | 1023.9 hPa | 0 mm | - | 0 W/m² | - |
| 1777797844 | 0.56° C | 89% | 1023.9 hPa | 0 mm | - | 0 W/m² | - |
| 1777797243 | 1.11° C | 90% | 1023.9 hPa | 0 mm | - | 0 W/m² | - |
| 1777796643 | 1.11° C | 89% | 1023.9 hPa | 0 mm | - | 0 W/m² | - |
| 1777796044 | 1.11° C | 89% | 1023.9 hPa | 0 mm | - | 0 W/m² | - |
| 1777795444 | 1.11° C | 89% | 1023.9 hPa | 0 mm | - | 0 W/m² | - |
| 1777794843 | 1.11° C | 89% | 1023.9 hPa | 0 mm | - | 0 W/m² | - |
| 1777794243 | 1.11° C | 88% | 1023.9 hPa | 0 mm | - | 0 W/m² | - |
| 1777793643 | 1.67° C | 88% | 1023.9 hPa | 0 mm | - | 0 W/m² | - |
* Rain latest hour (hover to see other rain measurements)
** Current wind speed in m/s (hover to see current wind gust speed)